www.pogodaiklimat.ru

Погода и климат >> Архив погоды >> Россия >> Чукотка >> Илирней


ПОГОДА в Илирнее

  • Прогноз погоды в Илирнее
  • Монитор погоды в Илирнее
  • Климат города

АРХИВ ПОГОДЫ в Илирнее

Время (UTC), дата Ветер
(напр.,м/с)
 
Видим.   Явления Облачность Т
(С)
Тd
(С)
f
(%)
Тe
(С)
Тes
(С)
Комфортность P
(гПа)
Po
(гПа)
Тmin
(С)
Tmax
(С)
R
(мм)
R24
(мм)
S
(см)
21 12.10 штиль 0
{3}
4000 м слабый снег 10/0
[As op]
-3.5 -4.9 90 -5 -5 984.5 941.5 -6.0 2
00 13.10 В 1
{3}
4000 м слабый снег 10/0
[As op]
-3.4 -4.8 90 -6 -6 983.3 940.4
03 13.10 ЮВ 2
{4}
4000 м слабый снег 10/0
[As op]
-2.7 -3.4 95 -7 -7 980.9 938.3
06 13.10 ЮВ 2
{5}
4000 м слабый снег 10/0
[As op]
-2.3 -2.4 99 -7 -7 979.0 936.5
09 13.10 В 1
{3}
4000 м слабый снег 10/0
[As op]
-2.8 -3.8 93 -5 -5 978.0 935.5 -2.3 2
12 13.10 ЮВ 1
{5}
4000 м слабый снег 10/0
[As op]
-3.3 -4.4 92 -6 -6 978.2 935.5
15 13.10 В 2
{5}
4000 м слабый снег 10/0
[As op]
-3.5 -4.6 92 -8 -8 978.4 935.7
18 13.10 В 1
{5}
4000 м слабый снег 10/0
[As op]
-4.0 -5.5 89 -6 -6 972.2 936.3
21 13.10 В 3
{6}
4000 м слабый снег 10/0
[As op]
-3.8 -5.0 91 -9 -9 979.7 937.0 -4.0 2 30
00 14.10 штиль 0
{4}
50 км {снег} 10/0
[Ac und]
-10.2 -11.5 90 -11 -10 988.4 944.2
03 14.10 штиль 0
{2}
50 км 10/0
[Ac und]
-6.8 -8.4 88 -8 -7 988.5 944.8
06 14.10 штиль 0
{2}
50 км 10/0
[Ac und]
-5.7 -6.8 92 -7 -7 989.6 946.1
09 14.10 З 2
{4}
20 км 10/0
[Ac und]
-4.1 -6.0 87 -8 -8 990.9 947.5 -3.8 0.3
12 14.10 штиль 0
{5}
20 км 10/0
[Ac und]
-4.4 -6.4 86 -5 -5 992.3 948.9
15 14.10 штиль 0
{3}
20 км 10/0
[Ac und]
-4.1 -5.7 89 -5 -5 993.8 950.3
18 14.10 штиль 0
{2}
20 км 10/0
[Ac und]
-4.2 -5.4 91 -5 -5 995.1 951.5
21 14.10 штиль 0
{2}
50 км 10/0
[Ac und]
-5.2 -7.3 85 -6 -6 996.3 952.5 -5.8
00 15.10 штиль 0
{2}
4000 м слабый снег 10/0
[As op]
-2.7 -4.0 91 -4 -4 996.6 953.2
03 15.10 штиль 0
{1}
4000 м слабый снег 10/0
[As op]
-2.9 -3.9 93 -4 -4 997.3 953.9
06 15.10 штиль 0
{1}
50 км {снег} 10/0
[Ac und]
-4.9 -5.5 96 -6 -6 999.1 955.2
09 15.10 штиль 0
{1}
20 км 10/0
[Ac und]
-6.4 -7.2 94 -7 -7 1000.8 956.7 -1.7 0.4
12 15.10 штиль 0
{1}
20 км 10/0
[Ac und]
-7.0 -7.5 96 -8 -8 1002.2 957.8
15 15.10 штиль 0
{1}
4000 м слабый снег 10/0
[As op]
-7.3 -8.2 93 -8 -8 1003.2 958.8
18 15.10 штиль 0
{1}
4000 м слабый снег 10/0
[As op]
-7.4 -8.3 93 -8 -8 1004.5 960.0
21 15.10 штиль 0
{1}
50 км {снег} 8/0
[Ac trans]
-8.3 -9.3 92 -9 -9 1005.3 960.7 -8.3 0.3
00 16.10 штиль 0
{2}
50 км слабая морось {метель} 6/0
[]
-10.4 -12.4 85 -11 -10 1006.8 961.7
03 16.10 штиль 0
{1}
50 км 10/0
[Ac und]
-5.1 -7.2 85 -6 -6 1006.4 962.2
06 16.10 штиль 0
{1}
50 км 10/0
[Ac und]
-5.8 -7.6 87 -7 -7 1007.0 962.8
09 16.10 штиль 0
{2}
20 км 8/0
[Ac trans]
-13.4 -14.7 90 -13 -13 1010.0 964.3 -4.8
12 16.10 штиль 0
{2}
20 км 10/0
[Ac und]
-16.8 -18.1 90 -17 -17 1012.6 966.1
15 16.10 штиль 0
{1}
20 км 10/0
[Ac und]
-19.1 -21.0 85 -19 -19 1013.8 966.9
18 16.10 штиль 0
{2}
20 км 10/0
[Ac und]
-20.1 -22.7 80 -20 -20 1014.9 967.7
21 16.10 штиль 0
{2}
50 км 10/0
[Ac und]
-16.5 -19.1 80 -17 -17 1014.9 968.5 -20.1
00 17.10 штиль 0
{2}
50 км 10/0
[Ac und]
-12.8 -14.1 90 -13 -13 1015.2 969.2
03 17.10 штиль 0
{1}
50 км 3/0
[Ac trans]
-5.7 -8.3 82 -7 -6 1014.3 969.7
06 17.10 В 1
{3}
50 км 8/0
[Ac trans]
-10.7 -12.0 90 -13 -13 1015.9 970.4
09 17.10 штиль 0
{2}
20 км 4/0
[Ac trans]
-13.0 -14.1 91 -13 -13 1018.4 972.3 -3.9
12 17.10 штиль 0
{2}
20 км 3/0
[Ac trans]
-18.3 -19.7 89 -18 -18 1020.6 973.5
15 17.10 штиль 0
{2}
20 км 10/0
[Ac und]
-22.3 -24.3 84 -22 -22 1022.2 974.3
18 17.10 штиль 0
{1}
50 км 10/0
[Ac und]
-19.5 -21.5 84 -20 -20 1022.4 975.0
21 17.10 З 1
{2}
50 км 10/0
[Ac und]
-17.8 -19.7 85 -21 -21 1023.3 976.1 -21.8 15
00 18.10 С 1
{2}
50 км 10/0
[Ac und]
-12.8 -14.1 90 -15 -15 1023.0 976.7
03 18.10 ЮЗ 1
{2}
50 км 10/0
[Ac und]
-9.8 -12.4 81 -12 -12 1022.5 976.8
06 18.10 З 1
{4}
50 км 10/0
[Ac und]
-9.4 -11.5 85 -12 -12 1023.3 977.7
09 18.10 В 1
{3}
20 км 10/0
[Ac und]
-9.5 -10.7 91 -12 -12 1023.9 978.3 -9.4
12 18.10 ЮЗ 1
{5}
20 км 10/0
[Ac und]
-7.2 -9.3 85 -10 -10 1024.0 978.9
15 18.10 штиль 0
{7}
20 км 10/0
[Ac und]
-8.1 -9.9 87 -9 -9 1025.1 979.5
18 18.10 З 1
{5}
20 км 10/0
[Ac und]
-0.0 -10.2 46 -2 -2 1023.3 979.3
21 18.10 штиль 0
{5}
50 км 8/0
[Ac trans]
-8.2 -10.1 86 -9 -9 1025.3 979.7 -9.5 15
00 19.10 З 3
{6}
50 км 9/0
[Ac trans]
-6.6 -9.8 78 -12 -12 1024.8 979.6
03 19.10 СЗ 2
{5}
50 км 10/0
[As op]
-6.6 -10.3 75 -11 -11 1024.5 979.3
06 19.10 СЗ 2
{5}
50 км 10/0
[As op]
-7.8 -12.8 67 -12 -12 1025.3 979.7
09 19.10 В 1
{4}
20 км 9/0
[As op]
-8.7 -12.0 77 -11 -11 1025.0 979.3 -6.3
12 19.10 З 2
{4}
50 км 10/0
[As op]
-8.6 -12.4 74 -13 -13 1025.0 979.4
15 19.10 З 3
{7}
20 км 10/0
[As op]
-8.4 -12.1 75 -14 -14 1024.0 978.5

 

Местоположение метеостанции Илирней (Чукотка, Россия): широта 67.25 долгота 167.90 высота над уровнем моря 354 м.

В архиве по умолчанию представлена погода в Илирнее за последнюю неделю. Архивные данные за месяц целиком и за предыдущие месяцы, начиная с января 2011 года, Вы можете получить, выбрав интересующий диапазон дат из раскрывающегося списка и нажав кнопку "Ввод!".

Внимание! Время в таблицах - всемирное. Для получения местного времени необходимо прибавить поправку, которая в Илирнее равна 12 ч.

Смотрите также архив погоды в соседних городах и на ближайших метеорологических станциях:

Погода в Билибино (Чукотка, Россия) (109 км)
Погода в Баимке (Чукотка, Россия) (180 км)
Погода на Островном (Чукотка, Россия) (187 км)
Погода в Чауне (Чукотка, Россия) (215 км)
Погода в Эньмувееме (Чукотка, Россия) (255 км)
Погода в Раучуе (Чукотка, Россия) (257 км)
Погода в Майской (Чукотка, Россия) (276 км)
Погода в Певеке (Чукотка, Россия) (288 км)
Погода в 21 км (Чукотка, Россия) (290 км)
Погода в Комсомольской (Чукотка, Россия) (291 км)

Пояснения к столбцам:

Ветер - указаны скорость ветра в м/с - средняя за 10 мин, порывы в срок и между сроками (в фигурных скобках) и направление, откуда дует ветер: С - северный, СВ - северо-восточный, В - восточный, ЮВ - юго-восточный, Ю - южный, ЮЗ - юго-западный, З - западный, СЗ - северо-западный.
Видимость - горизонтальная дальность видимости в метрах или километрах. При видимости от 1 до 10 км при отсутствии осадков обычно наблюдается дымка, при ухудшении видимости до 1 км и менее - туман. В сухую погоду видимость может ухудшаться дымом, пылью или мглою.
Явления - указаны атмосферные явления, наблюдавшиеся в срок или в последний час перед сроком; фигурными скобками обозначены явления, наблюдавшиеся между сроками (за 1-3 часа до срока); квадратными скобками обозначены град или гололедные отложения с указанием их диаметра в мм.
Облачность - указаны через наклонную черту общая и нижняя облачность в баллах и высота нижней границы облаков в метрах; квадратными скобками обозначены формы облаков: Ci - перистые, Cs - перисто-слоистые, Cc - перисто-кучевые, Ac - высококучевые, As - высокослоистые, Sc - слоисто-кучевые, Ns - слоисто-дождевые, Cu - кучевые, Cb - кучево-дождевые. Подробнее классификацию облаков см. в Атласе облаков (PDF).
T - Температура воздуха - температура, измеренная на высоте 2 м над землей.
Td - Температура точки росы - температура, при понижении до которой содержащийся в воздухе водяной пар достигнет насыщения.
f - Относительная влажность воздуха - влажноcть воздуха, измеренная на высоте 2 м над землей.
Te - Эффективная температура - температура, которую ощущает одетый по сезону человек в тени. Характеристика душности погоды. При расчете учитывается влияние влажности воздуха и скорости ветра на теплоощущения человека.
Tes - Эффективная температура на солнце - температура, которую ощущает человек, с поправкой на солнечный нагрев. Характеристика знойности погоды. Зависит от высоты солнца над горизонтом, облачности и скорости ветра. Ночью, в пасмурную погоду, а также при ветре 12 м/с и более поправка равна нулю.
P - Атмосферное давление - приведенное к уровню моря атмосферное давление.
Po - Атмосферное давление - измеренное на уровне метеостанции атмосферное давление.
Tmin - Минимальная температура - минимум температуры воздуха на высоте 2 м над землей.
Tmax - Максимальная температура - максимум температуры воздуха на высоте 2 м над землей.
R - Количество осадков - Количество выпавших осадков за период времени, мм. При наведении курсора мыши на число - период времени, за который выпало указанное количество осадков.
R24 - Количество осадков - Количество выпавших осадков за 24 часа, мм.
S - Снежный покров - Высота снежного покрова, см. При наведении курсора мыши на число - состояние снежного покрова и степень покрытия местности в баллах.